[[{"header":{"parameterUnit":"m.s-1","parameterCategory":1,"la1":30.2991,"la2":30.254,"lo1":-89.0895,"lo2":-89.0444,"dy":0.0017,"dx":0.0017,"nx":28,"ny":28,"refTime":"2024-05-30T09:00:00:Z","depth":0,"parameterNumber":2,"parameterNumberName":"U-component_of_WINDS"},"data":[0,0,0,0,0,0,0,0,0,0,0,0,0,0,0,0,0,0,0,0,0,0,0,0,0,0,0,0,0,0,0,0,0,0,0,0,0,0,0,0,0,0,0,0,0,0,0,0,0,0,0,0,0,0,0,0,0,0,-3.7029,-3.7029,0,-3.7099,-3.71,-3.7101,-3.7052,-3.705,-3.7047,-3.7045,-3.7116,-3.712,-3.7124,0,0,0,0,0,0,0,0,0,0,0,0,0,-3.6849,-3.6853,-3.7029,-3.7029,-3.703,-3.7099,-3.71,-3.7101,-3.7052,-3.705,-3.7047,-3.7044,-3.7115,-3.712,-3.7124,0,0,0,0,0,0,0,0,0,0,0,0,0,-3.6924,-3.6854,-3.7028,-3.7014,-3.7014,-3.7099,-3.71,-3.7101,-3.7053,-3.7049,-3.7046,-3.7043,-3.7113,-3.7119,-3.7125,-3.7228,0,0,-3.7143,-3.7146,0,0,0,0,0,0,0,0,-3.692,-3.6931,-3.7015,-3.7015,-3.7015,-3.7063,-3.7063,-3.7144,-3.7054,-3.7038,-3.7045,-3.7041,-3.7101,-3.7108,-3.7128,-3.7231,-3.7234,-3.7144,-3.7147,-3.715,-3.7151,0,0,0,0,0,0,0,-3.6915,-3.6928,-3.7056,-3.7017,-3.7016,-3.7004,-3.7011,-3.7078,-3.7087,-3.7039,-3.7036,-3.7045,-3.71,-3.7123,-3.713,-3.7235,-3.7143,-3.7149,-3.7152,-3.7155,-3.7423,-3.7427,0,0,0,0,0,0,-3.6911,-3.6924,-3.7054,-3.7059,-3.6958,-3.701,-3.7018,-3.7051,-3.7086,-3.7089,-3.7048,-3.7042,-3.7114,-3.7123,-3.7132,-3.7252,-3.715,-3.7155,-3.7159,-3.742,-3.7424,-3.7428,0,0,0,0,0,0,-3.6908,-3.6923,-3.7051,-3.699,-3.7006,-3.7016,-3.7054,-3.7054,-3.7077,-3.7093,-3.7094,-3.7069,-3.7112,-3.7124,-3.7204,-3.7254,-3.7158,-3.7163,-3.7416,-3.7421,-3.7426,-3.7496,0,0,0,0,0,0,-3.6903,-3.6922,-3.6962,-3.6992,-3.7009,-3.7123,-3.7058,-3.7058,-3.7087,-3.7081,-3.7113,-3.7115,-3.711,-3.7195,-3.721,-3.7261,-3.7168,-3.7411,-3.7418,-3.7424,-3.7489,-3.7503,-3.7515,0,0,0,0,0,-3.6896,-3.6979,-3.6964,-3.698,-3.7059,-3.7126,-3.7136,-3.7129,-3.7091,-3.7131,-3.7141,-3.7114,-3.7247,-3.7204,-3.722,-3.7273,-3.7408,-3.7416,-3.7424,-3.7483,-3.75,-3.7514,0,0,0,0,0,0,-3.6954,-3.6982,-3.6966,-3.7061,-3.7091,-3.7117,-3.7166,-3.7147,-3.7189,-3.7181,-3.7171,-3.7178,-3.7262,-3.7276,-3.7227,-3.7374,-3.7321,-3.7333,-3.7361,-3.7377,-3.739,-3.7383,-3.7173,0,0,0,0,0,-3.6978,-3.7031,-3.7052,-3.7133,-3.715,-3.7156,-3.7185,-3.7177,-3.7208,-3.722,-3.7237,-3.7267,-3.7316,-3.7348,-3.7393,-3.7492,-3.7497,-3.7536,-3.7549,-3.756,-3.7569,-3.762,-3.7637,-3.7455,-3.7455,-3.7454,0,0,-3.7027,-3.7049,-3.7083,-3.7145,-3.7168,-3.7222,-3.7167,-3.7226,-3.7266,-3.7229,-3.7305,-3.7319,-3.7352,-3.7441,-3.7481,-3.7456,-3.7621,-3.757,-3.7578,-3.7582,-3.763,-3.7647,-3.7663,-3.746,-3.7459,-3.7458,0,0,-3.7144,-3.7167,-3.7236,-3.726,-3.7295,-3.7299,-3.7316,-3.7345,-3.7352,-3.7429,-3.7402,-3.7449,-3.7534,-3.7558,-3.7581,-3.7708,-3.7684,-3.7723,-3.7789,-3.784,-3.7854,-3.7866,-3.7909,-3.7925,-3.7733,-3.7733,-3.7733,0,-3.72,-3.728,-3.7274,-3.7335,-3.7362,-3.7333,-3.7402,-3.7426,-3.7474,-3.7494,-3.7465,-3.7569,-3.759,-3.7683,-3.7714,-3.7735,-3.7752,-3.7718,-3.7853,-3.7865,-3.7877,-3.7917,-3.7934,-3.7738,-3.7737,-3.7737,-3.7736,0,-3.7347,-3.7403,-3.7455,-3.7502,-3.7536,-3.7601,-3.7603,-3.7638,-3.7628,-3.7635,-3.7713,-3.7737,-3.7786,-3.7808,-3.7799,-3.79,-3.7883,-3.7854,-3.78,-3.7899,-3.7936,-3.7952,-3.7744,-3.7742,-3.7741,-3.774,0,0,-3.75,-3.7543,-3.7562,-3.7582,-3.7619,-3.7662,-3.7726,-3.7775,-3.7804,-3.7839,-3.789,-3.7963,-3.7936,-3.7963,-3.7956,-3.8001,-3.8096,-3.7965,-3.7966,-3.7986,-3.8207,-3.8227,-3.8245,-3.8082,-3.8085,-3.8088,-3.8203,0,-3.7616,-3.7727,-3.7722,-3.7825,-3.7876,-3.785,-3.7905,-3.7933,-3.7941,-3.7985,-3.7994,-3.8045,-3.8007,-3.8022,-3.8065,-3.8076,-3.814,-3.8068,-3.8128,-3.813,-3.8117,-3.8265,-3.8286,-3.8394,-3.8218,-3.8221,-3.8223,0,-3.7766,-3.7806,-3.7914,-3.7942,-3.7964,-3.8013,-3.8057,-3.81,-3.8131,-3.8134,-3.8165,-3.8151,-3.8214,-3.8162,-3.8248,-3.8199,-3.8224,-3.8233,-3.8237,-3.824,-3.818,-3.8269,-3.8429,-3.8444,-3.8247,-3.8245,-3.8243,0,-3.7863,-3.7944,-3.8018,-3.8037,-3.8074,-3.8109,-3.8125,-3.8154,-3.8183,-3.8221,-3.824,-3.8286,-3.831,-3.8345,-3.8344,-3.8306,-3.8431,-3.8379,-3.8433,-3.8433,-3.8458,-3.8456,-3.8621,-3.8479,-3.8479,-3.8479,-3.8478,0,-3.7992,-3.8058,-3.8062,-3.8108,-3.8181,-3.8176,-3.8249,-3.8262,-3.8287,-3.8334,-3.8315,-3.8359,-3.8357,-3.8401,-3.8401,-3.8471,-3.8483,-3.8486,-3.8485,-3.8486,-3.8485,-3.85,-3.8491,-3.8483,-3.8482,-3.8481,-3.8481,0,-3.8111,-3.8117,-3.8196,-3.8224,-3.8233,-3.8285,-3.8309,-3.8351,-3.8359,-3.8418,-3.8432,-3.8443,-3.8495,-3.8498,-3.8558,-3.8557,-3.8642,-3.8634,-3.8631,-3.8628,-3.8682,-3.8676,-3.8859,-3.8882,-3.8729,-3.873,-3.8731,0,-3.8191,-3.8242,-3.8275,-3.8305,-3.8324,-3.8373,-3.8403,-3.84,-3.8432,-3.8472,-3.8509,-3.8559,-3.8599,-3.8683,-3.8695,-3.8741,-3.8732,-3.8793,-3.8738,-3.8738,-3.8729,-3.8725,-3.8729,-3.8803,-3.8805,-3.8806,-3.8807,0,-3.8332,-3.8332,-3.8376,-3.8421,-3.8457,-3.8492,-3.8525,-3.8551,-3.8552,-3.8589,-3.8641,-3.8672,-3.8733,-3.8782,-3.8827,-3.8843,-3.8825,-3.8825,-3.8839,-3.884,-3.8835,-3.8835,-3.8657,-3.882,-3.8818,-3.8818,-3.8817,-3.8816,-3.8432,-3.8475,-3.8505,-3.8554,-3.8579,-3.861,-3.8651,-3.8663,-3.8707,-3.8757,-3.8753,-3.8811,-3.8841,-3.8899,-3.8919,-3.8964,-3.8942,-3.8964,-3.8969,-3.8974,-3.8978,-3.8831,-3.8972,-3.8972,-3.8971,-3.8971,-3.8971,0,-3.857,-3.8588,-3.8633,-3.8679,-3.8718,-3.8699,-3.8734,-3.8767,-3.8819,-3.8848,-3.8888,-3.8948,-3.8996,-3.9013,-3.9059,-3.9092,-3.9084,-3.9104,-3.91,-3.9103,-3.8995,-3.8977,-3.9109,-3.9109,-3.9109,-3.9109,-3.9108,-3.9108,-3.8645,-3.8716,-3.872,-3.8803,-3.882,-3.8877,-3.8898,-3.8927,-3.895,-3.9018,-3.9058,-3.9069,-3.9093,-3.9141,-3.9184,-3.9188,-3.9204,-3.9227,-3.9227,-3.9125,-3.9111,-3.9098,-3.908,-3.9231,-3.9231,-3.933,-3.9331,-3.9332]},{"header":{"parameterUnit":"m.s-1","parameterCategory":1,"la1":30.2991,"la2":30.254,"lo1":-89.0895,"lo2":-89.0444,"dy":0.0017,"dx":0.0017,"nx":28,"ny":28,"refTime":"2024-05-30T09:00:00:Z","depth":0,"parameterNumber":3,"parameterNumberName":"V-component_of_WINDS"},"data":[0,0,0,0,0,0,0,0,0,0,0,0,0,0,0,0,0,0,0,0,0,0,0,0,0,0,0,0,0,0,0,0,0,0,0,0,0,0,0,0,0,0,0,0,0,0,0,0,0,0,0,0,0,0,0,0,0,0,2.5826,2.5827,0,2.5933,2.5934,2.5935,2.5949,2.5948,2.5947,2.5946,2.6053,2.6056,2.606,0,0,0,0,0,0,0,0,0,0,0,0,0,2.5633,2.5637,2.5826,2.5827,2.5829,2.5932,2.5934,2.5935,2.5949,2.5948,2.5947,2.5946,2.6051,2.6056,2.606,0,0,0,0,0,0,0,0,0,0,0,0,0,2.5726,2.5638,2.5826,2.5848,2.5851,2.5932,2.5934,2.5936,2.5949,2.5948,2.5946,2.5945,2.605,2.6055,2.6061,2.6126,0,0,2.6078,2.6081,0,0,0,0,0,0,0,0,2.5721,2.5733,2.5843,2.5847,2.585,2.5926,2.5905,2.6,2.595,2.5912,2.5946,2.5944,2.6012,2.602,2.6044,2.6131,2.6136,2.6079,2.6082,2.6085,2.6086,0,0,0,0,0,0,0,2.5714,2.5728,2.5868,2.5845,2.5849,2.5852,2.5864,2.5923,2.5969,2.5915,2.5916,2.5929,2.6013,2.6038,2.6046,2.6138,2.6079,2.6084,2.6087,2.6089,2.6286,2.6288,0,0,0,0,0,0,2.5704,2.5723,2.5865,2.5871,2.5781,2.5857,2.587,2.5903,2.5968,2.5977,2.593,2.5929,2.6029,2.604,2.605,2.6132,2.6085,2.609,2.6093,2.6284,2.6286,2.6288,0,0,0,0,0,0,2.57,2.5716,2.586,2.5798,2.5816,2.5862,2.5899,2.5906,2.5931,2.598,2.5988,2.5947,2.6028,2.6042,2.6108,2.6136,2.6093,2.6098,2.6282,2.6285,2.6287,2.6295,0,0,0,0,0,0,2.5694,2.5715,2.574,2.5798,2.582,2.5917,2.5901,2.5909,2.5941,2.5941,2.5998,2.6006,2.6028,2.6099,2.6113,2.6143,2.6102,2.628,2.6283,2.6287,2.6292,2.6298,2.6302,0,0,0,0,0,2.5687,2.5737,2.5741,2.5758,2.5852,2.5918,2.593,2.5956,2.5943,2.5969,2.6001,2.6004,2.613,2.6106,2.6122,2.6153,2.6278,2.6282,2.6286,2.629,2.6297,2.6302,0,0,0,0,0,0,2.568,2.5745,2.575,2.5821,2.5864,2.5921,2.5954,2.5962,2.6008,2.6006,2.6035,2.6048,2.6113,2.614,2.6111,2.6221,2.6203,2.6211,2.6201,2.6207,2.6212,2.6204,2.6107,0,0,0,0,0,2.5687,2.5736,2.579,2.5846,2.5868,2.5907,2.5937,2.5953,2.5999,2.6017,2.6053,2.6096,2.6146,2.6178,2.6226,2.6297,2.631,2.6326,2.6331,2.6335,2.6341,2.6381,2.6389,2.6302,2.6302,2.6302,0,0,2.5701,2.5743,2.5771,2.5846,2.5881,2.5931,2.5922,2.5975,2.6012,2.6024,2.6089,2.6118,2.6168,2.6237,2.6269,2.6261,2.6368,2.634,2.6343,2.6347,2.6386,2.6394,2.6402,2.6305,2.6304,2.6304,0,0,2.5752,2.5788,2.584,2.5876,2.5931,2.5957,2.5969,2.6025,2.6045,2.6111,2.6122,2.6166,2.6251,2.6287,2.6316,2.6384,2.6389,2.6398,2.6423,2.6462,2.6469,2.6475,2.65,2.6508,2.6404,2.6404,2.6404,0,2.5762,2.5838,2.5866,2.5919,2.5951,2.5967,2.6019,2.6053,2.612,2.6142,2.6133,2.6241,2.6276,2.6354,2.6371,2.6394,2.6409,2.6391,2.6466,2.6472,2.6479,2.6502,2.6511,2.6405,2.6405,2.6405,2.6405,0,2.5848,2.5901,2.5936,2.6002,2.6039,2.6091,2.6127,2.6161,2.6174,2.6202,2.6269,2.6312,2.637,2.639,2.6403,2.647,2.6464,2.646,2.6443,2.6487,2.651,2.6519,2.6406,2.6406,2.6406,2.6406,0,0,2.5896,2.5978,2.5991,2.6021,2.6083,2.6124,2.6178,2.6236,2.6265,2.6311,2.6357,2.6429,2.6427,2.646,2.6477,2.6512,2.6563,2.6504,2.6506,2.6514,2.6641,2.6643,2.6653,2.6567,2.6569,2.6571,2.6637,0,2.5955,2.6051,2.6079,2.616,2.6209,2.6225,2.6272,2.6315,2.6342,2.6388,2.6418,2.6469,2.6462,2.6482,2.6517,2.6549,2.6589,2.6545,2.661,2.6612,2.6597,2.6665,2.6667,2.6728,2.6646,2.6647,2.6648,0,2.6035,2.6084,2.6171,2.6228,2.625,2.6292,2.6348,2.6391,2.6441,2.6458,2.6497,2.6512,2.6568,2.6549,2.6628,2.6597,2.6626,2.6646,2.6649,2.6655,2.6632,2.6673,2.6747,2.6756,2.6663,2.6661,2.666,0,2.6062,2.615,2.6213,2.6239,2.6307,2.6336,2.6366,2.6414,2.6448,2.6497,2.6519,2.6573,2.6603,2.6645,2.6675,2.6658,2.6751,2.6734,2.6767,2.6767,2.6786,2.6784,2.6865,2.6804,2.6804,2.6804,2.6804,0,2.6124,2.6176,2.6226,2.6265,2.6325,2.6356,2.6414,2.6445,2.6488,2.6533,2.655,2.6592,2.6629,2.6676,2.6699,2.6761,2.6774,2.679,2.6796,2.6789,2.6787,2.6807,2.6804,2.6806,2.6806,2.6805,2.6805,0,2.6163,2.6199,2.6269,2.6329,2.6345,2.6387,2.6437,2.6476,2.6505,2.6562,2.6577,2.6622,2.6678,2.6712,2.6783,2.6799,2.6868,2.6872,2.6851,2.6854,2.6886,2.6882,2.6982,2.6997,2.6927,2.6927,2.6928,0,2.62,2.6241,2.6306,2.6338,2.6368,2.642,2.6455,2.6487,2.6523,2.6584,2.6615,2.6673,2.6721,2.6811,2.6849,2.6904,2.6909,2.6941,2.6917,2.691,2.691,2.6907,2.6912,2.6944,2.6945,2.6945,2.6946,0,2.6263,2.6279,2.6329,2.6386,2.6427,2.6473,2.6519,2.6544,2.6584,2.6624,2.6682,2.672,2.6793,2.6851,2.6909,2.694,2.695,2.6953,2.6964,2.6957,2.6943,2.6952,2.6862,2.695,2.695,2.695,2.6949,2.6949,2.6302,2.634,2.6392,2.6447,2.6486,2.6528,2.6568,2.6602,2.6652,2.6715,2.6732,2.6793,2.6843,2.6923,2.6955,2.7004,2.6999,2.7014,2.7018,2.7021,2.7023,2.6936,2.7015,2.7015,2.7015,2.7015,2.7014,0,2.6366,2.64,2.6451,2.6515,2.6559,2.6566,2.6618,2.6654,2.6708,2.6754,2.6802,2.687,2.6926,2.697,2.7028,2.7059,2.7065,2.7073,2.7071,2.7078,2.7023,2.7009,2.7067,2.7067,2.7067,2.7067,2.7067,2.7067,2.6404,2.6468,2.6491,2.6575,2.6609,2.667,2.6699,2.6739,2.6776,2.6852,2.6899,2.6928,2.6973,2.7035,2.7087,2.7099,2.7119,2.7126,2.7139,2.7087,2.7081,2.7076,2.7062,2.7131,2.7131,2.7189,2.719,2.719]}]]